Weather Roundup
Issued by NWS Springfield, MO

Home | Current Version | Previous Version | Text Only | Print | Product List | Glossary On
Versions: 1 2 3 4 5 6 7 8 9 10 11 12 13 14 15 16 17 18 19 20 21 22 23 24 25 26 27 28 29 30 31 32 33 34 35 36 37 38 39 40 41 42 43 44 45 46 47 48 49 50
000
NZUS99 KSGF 261207
HRRSGF

HOURLY WEATHER
NATIONAL WEATHER SERVICE SPRINGFIELD MO
700 AM CDT TUE JUL 26 2016

......SGF CWA......

CITY           SKY/WX    TMP DP  RH WIND       PRES   REMARKS
SPRINGFIELD    CLEAR     75  71  87 NE3       30.04R
6HR MIN TEMP:  74; 6HR MAX TEMP:  75;

JOPLIN         CLOUDY    74  72  93 CALM      30.03R
6HR MIN TEMP:  73; 6HR MAX TEMP:  74;

WEST PLAINS    CLOUDY    75  71  87 E5        30.07S
6HR MIN TEMP:  74; 6HR MAX TEMP:  77;

ROLLA          CLEAR     72  69  90 E5        30.05R
6HR MIN TEMP:  70; 6HR MAX TEMP:  73;

OSAGE BEACH    MOCLDY    71  70  96 NE5       30.06R
BRANSON        MOCLDY    73  73 100 SE5       30.05R FOG

......SURROUNDING SGF CWA......

CITY           SKY/WX    TMP DP  RH WIND       PRES   REMARKS
CHANUTE        CLOUDY    74  72  93 NE7       30.03S
PARSONS          N/A    N/A N/A N/A MISG      30.03R
COFFEYVILLE    CLOUDY    75  73  93 NE6       30.00S
EMPORIA        CLOUDY    72  70  93 NE5       30.06S FOG
GROVE OK       CLOUDY    73  73 100 CALM      30.01S
ROGERS AR      CLOUDY    74  73  97 E5        30.03S
SILOAM SPRINGS CLOUDY    73  64  73 CALM      30.03S
HARRISON AR    FOG       73  73 100 SE5       30.05R VSB 1/2
NEAR YELLVILLE CLOUDY    73  70  88 CALM      30.01R

......KANSAS AND MISSOURI......

CITY           SKY/WX    TMP DP  RH WIND       PRES   REMARKS
KANSAS CTY INT PTCLDY    71  67  87 NE6       30.07S
DOWNTOWN KC    CLEAR     73  67  81 CALM      30.06R
COLUMBIA       CLOUDY    72  69  90 NE7       30.05S
SEDALIA        CLEAR     72  69  90 NE3       30.07R FOG
ST JOSEPH      PTCLDY    66  64  93 CALM      30.08R
ST LOUIS       CLOUDY    78  72  81 N6        30.04S
SPIRIT OF STL  PTSUNNY   76  73  91 N3        30.02R
KIRKSVILLE     HVY RAIN  67  64  90 NE5       30.09R
WICHITA        MOCLDY    74  71  91 N8        30.04S
TOPEKA         PTCLDY    68  66  93 CALM      30.07R
OLATHE         CLEAR     70  67  90 N6        30.07R

......TENNESSEE......

CITY           SKY/WX    TMP DP  RH WIND       PRES   REMARKS
MEMPHIS        PTCLDY    81  72  74 CALM      30.01R
NASHVILLE      MOSUNNY   77  73  87 CALM      30.04S

......ARKANSAS.......

CITY           SKY/WX    TMP DP  RH WIND       PRES   REMARKS
FAYETTEVILLE   CLOUDY    71  71 100 SE3       30.02S FOG
FT SMITH       CLOUDY    75  70  84 E5        29.99R
LITTLE ROCK    PTCLDY    80  75  84 N6        29.99R

......OKLAHOMA.......

CITY           SKY/WX    TMP DP  RH WIND       PRES   REMARKS
TULSA          CLOUDY    77  76  96 N7        29.97R
PONCA CITY     CLOUDY    75  72  90 N5        30.00S
MCALESTER      MOCLDY    77  73  87 CALM      29.99S
OKLAHOMA CITY  MOCLDY    74  72  93 N5        30.01R

......IOWA............

CITY           SKY/WX    TMP DP  RH WIND       PRES   REMARKS
DES MOINES     PTCLDY    69  66  90 CALM      30.08S
QUAD CITIES    MOSUNNY   68  65  90 CALM      30.07R

......ILLINOIS........

CITY           SKY/WX    TMP DP  RH WIND       PRES   REMARKS
QUINCY         SUNNY     69  66  90 NE5       30.06R
CHICAGO        MOSUNNY   74  66  76 NW5       30.07R




USA.gov is the U.S. government's official web portal to all federal, state and local government web resources and services.